Bookmark and Share
Track history (hours):
 

Drifting buoy 16575

Last reported at 2014-Apr-21 09:50 UTC. Time now 2014-Apr-21 12:10 UTC.
Position S 29°38' E 052°52'.

Barometer 1011.6 mb
Water temperature 24.2 ° C

NotesDate/timePositionNaut miles runAvg speedWind from/ knotsBaromVisibWave heightAir tempDewpointWater temp
2014-Apr-21 09:50S 29°38' E 052°52'0 0.0 1011.6 24.2
2014-Apr-21 08:50S 29°38' E 052°52'1 0.5 1017.1 24.2
2014-Apr-21 06:50S 29°38' E 052°53'0 0.0 1019.4 24.0
2014-Apr-21 05:50S 29°38' E 052°53'0 0.2 1014.9 23.9
2014-Apr-21 04:50S 29°38' E 052°54'1 0.9 1020.0 23.9
2014-Apr-21 03:50S 29°39' E 052°54'0 0.1 1024.5 23.9
2014-Apr-21 02:50S 29°39' E 052°55'1 0.6 1016.7 23.9
2014-Apr-21 01:50S 29°39' E 052°55'1 0.9 1017.4 23.9
2014-Apr-21 00:50S 29°40' E 052°56'0 0.2 1015.7 23.9
2014-Apr-20 23:50S 29°40' E 052°56'1 0.9 1016.2 24.0
2014-Apr-20 22:50S 29°41' E 052°56'1 0.5 1017.4 24.0
2014-Apr-20 21:50S 29°41' E 052°57'0 0.1 1017.9 24.0
2014-Apr-20 20:50S 29°41' E 052°57'1 0.5 1017.4 24.0
2014-Apr-20 18:50S 29°42' E 052°57'0 0.1 1017.9 24.1
2014-Apr-20 17:50S 29°42' E 052°57'1 0.3 1017.3 24.2
2014-Apr-20 14:50S 29°43' E 052°57'0 0.4 1013.8 24.4
2014-Apr-20 13:50S 29°43' E 052°57'0 0.2 1008.2 24.4
2014-Apr-20 12:50S 29°43' E 052°57'1 0.8 1015.7 24.5
2014-Apr-20 11:50S 29°44' E 052°57'1 1.1 1013.6 24.6
2014-Apr-20 10:50S 29°45' E 052°57'0 0.1 1015.1 24.5
2014-Apr-20 09:50S 29°45' E 052°57'0 0.0 1021.4 24.4
2014-Apr-20 08:50S 29°45' E 052°57'3 0.7 1024.7 24.2
2014-Apr-20 04:50S 29°48' E 052°57'1 0.7 1022.0 23.8
2014-Apr-20 03:50S 29°48' E 052°57'0 0.3 1021.8 23.8
2014-Apr-20 02:50S 29°48' E 052°56'0 0.2 1020.0 23.8
2014-Apr-20 01:50S 29°48' E 052°57'0 0.2 1019.4 23.8
2014-Apr-19 23:50S 29°49' E 052°57'0 0.3 1019.7 23.8
2014-Apr-19 22:50S 29°49' E 052°57'0 0.1 1019.9 23.8
2014-Apr-19 20:50S 29°49' E 052°57'0 0.2 1020.3 23.8
2014-Apr-19 18:50S 29°49' E 052°57'1 0.7 1021.0 23.8
2014-Apr-19 17:50S 29°50' E 052°56'1 0.7 1020.4 23.8
2014-Apr-19 16:50S 29°49' E 052°55'0 0.1 1021.1 23.8
2014-Apr-19 14:50S 29°50' E 052°55'2 0.8 1020.5 23.8
2014-Apr-19 12:50S 29°48' E 052°55'0 0.0 1018.6 23.8
2014-Apr-19 11:50S 29°48' E 052°55'0 0.3 1017.7 23.7
2014-Apr-19 10:50S 29°48' E 052°55'0 0.1 1019.8 23.8
2014-Apr-19 09:50S 29°48' E 052°55'2 2.2 1020.5 23.8
2014-Apr-19 08:50S 29°49' E 052°57'0 0.0 1026.0 23.8
2014-Apr-19 07:50S 29°49' E 052°57'0 0.1 1022.0 23.8
2014-Apr-19 06:50S 29°49' E 052°58'1 0.7 1025.2 23.8
2014-Apr-19 05:50S 29°50' E 052°58'1 0.5 1022.8 23.8
2014-Apr-19 04:50S 29°50' E 052°58'1 1.0 1023.1 23.8
2014-Apr-19 03:50S 29°51' E 052°57'0 0.0 1021.3 23.7
2014-Apr-19 02:50S 29°51' E 052°57'1 1.0 1021.7 23.7
2014-Apr-19 01:50S 29°52' E 052°56'0 0.1 1021.7 23.7
2014-Apr-19 00:50S 29°51' E 052°56'0 0.4 1021.5 23.7
2014-Apr-18 23:50S 29°52' E 052°56'0 0.2 1021.8 23.7
2014-Apr-18 22:50S 29°52' E 052°56'1 0.7 1020.6 23.7
2014-Apr-18 21:50S 29°53' E 052°56'1 0.5 1021.3 23.8
2014-Apr-18 18:50S 29°54' E 052°57'1 0.5 1022.8 23.8
2014-Apr-18 17:50S 29°54' E 052°57'2 1.7 1022.6 23.8
2014-Apr-18 16:50S 29°56' E 052°57'0 0.0 1022.7 23.8
2014-Apr-18 15:50S 29°56' E 052°57'0 0.0 1022.1 23.8
2014-Apr-18 14:50S 29°56' E 052°57'0 0.2 1021.3 23.8
2014-Apr-18 12:50S 29°56' E 052°57'0 0.2 1021.0 23.9
2014-Apr-18 11:50S 29°57' E 052°57'0 0.1 1019.9 23.9
2014-Apr-18 09:50S 29°57' E 052°57'1 0.6 1018.3 23.9
2014-Apr-18 08:50S 29°57' E 052°58'0 0.1 1025.8 23.8
2014-Apr-18 06:50S 29°57' E 052°58'0 0.4 1022.4 23.6
2014-Apr-18 05:50S 29°57' E 052°59'0 0.1 1023.8 23.6
2014-Apr-18 04:50S 29°57' E 052°59'1 1.3 1022.3 23.6
2014-Apr-18 03:50S 29°58' E 052°60'1 0.3 1021.9 23.6
2014-Apr-18 00:50S 29°58' E 053°00'1 0.7 1020.5 23.5
2014-Apr-17 23:50S 29°59' E 053°01'0 0.1 1020.8 23.5
2014-Apr-17 22:50S 29°59' E 053°01'1 0.9 1020.9 23.6
2014-Apr-17 21:50S 29°59' E 052°60'2 1.6 1021.1 23.6
2014-Apr-17 20:50S 30°00' E 053°01'0 0.0 1021.3 23.6
2014-Apr-17 19:50S 30°00' E 053°01'1 0.3 1021.2 23.6
2014-Apr-17 17:50S 30°01' E 053°01'1 0.6 1020.8 23.6
2014-Apr-17 15:50S 30°02' E 053°02'0 0.0 1019.2 23.7
2014-Apr-17 14:50S 30°02' E 053°02'1 0.7 1019.2 23.8
2014-Apr-17 13:50S 30°02' E 053°03'0 0.1 1016.4 23.8
2014-Apr-17 12:50S 30°02' E 053°03'2 2.1 1017.9 23.9
2014-Apr-17 11:50S 30°04' E 053°04'0 0.0 1014.7 23.9
2014-Apr-17 10:50S 30°04' E 053°04'1 1.2 1018.2 23.9
2014-Apr-17 09:50S 30°05' E 053°04'0 0.1 1017.5 23.9
2014-Apr-17 08:50S 30°05' E 053°04'1 0.6 1016.9 23.9
2014-Apr-17 06:50S 30°06' E 053°05'0 0.4 1020.8 23.8
2014-Apr-17 05:50S 30°07' E 053°04'1 0.6 1018.9 23.8
2014-Apr-17 04:50S 30°07' E 053°05'1 0.7 1018.7 23.8
2014-Apr-17 03:50S 30°08' E 053°04'0 0.1 1019.0 23.8
2014-Apr-17 02:50S 30°08' E 053°04'1 0.5 1017.3 23.8
2014-Apr-17 01:50S 30°09' E 053°05'1 0.6 1018.1 23.8
2014-Apr-17 00:40S 30°09' E 053°05'0 0.4 1017.4 23.8
2014-Apr-16 23:50S 30°09' E 053°06'0 0.0 1017.5 23.8
2014-Apr-16 22:50S 30°09' E 053°06'1 1.3 1018.0 23.8
2014-Apr-16 21:50S 30°10' E 053°06'0 0.1 1018.3 23.8
2014-Apr-16 19:40S 30°10' E 053°07'1 1.4 1018.4 23.7
2014-Apr-16 18:50S 30°11' E 053°07'1 0.6 1019.0 23.7
2014-Apr-16 17:40S 30°12' E 053°07'1 0.9 1019.2 23.7
2014-Apr-16 16:50S 30°13' E 053°07'2 1.6 1018.1 23.7
2014-Apr-16 15:50S 30°14' E 053°08'0 0.1 1017.2 23.7
2014-Apr-16 14:50S 30°14' E 053°08'5 1.5 1015.3 23.7
2014-Apr-16 11:40S 30°18' E 053°11'0 0.0 1010.5 23.6
2014-Apr-16 10:50S 30°18' E 053°11'2 1.6 1018.7 23.6
2014-Apr-16 09:40S 30°20' E 053°10'0 0.1 1017.6 22.9
2014-Apr-16 08:50S 30°20' E 053°10'2 0.8 1016.5 22.8
2014-Apr-16 06:50S 30°21' E 053°12'0 0.3 1023.3 23.0
2014-Apr-16 05:50S 30°21' E 053°11'0 0.4 1021.8 23.1
2014-Apr-16 04:50S 30°21' E 053°12'0 0.5 1022.8 23.2
2014-Apr-16 03:50S 30°21' E 053°12'0 0.1 1019.3 23.2
2014-Apr-16 00:50S 30°21' E 053°12'0 0.1 1019.2 23.5
2014-Apr-15 23:50S 30°21' E 053°12'0 0.4 1019.1 23.5
2014-Apr-15 22:50S 30°21' E 053°11'0 0.3 1020.1 23.5
2014-Apr-15 21:50S 30°21' E 053°12'0 0.0 1021.5 23.5
2014-Apr-15 20:50S 30°21' E 053°12'0 0.2 1020.4 23.5
2014-Apr-15 19:50S 30°21' E 053°11'0 0.2 1021.5 23.5
2014-Apr-15 18:50S 30°21' E 053°12'1 0.3 1021.2 23.5
2014-Apr-15 15:40S 30°22' E 053°13'0 0.6 1021.2 23.6
2014-Apr-15 14:50S 30°21' E 053°13'1 0.6 1019.8 23.6
2014-Apr-15 13:50S 30°21' E 053°14'0 0.0 1017.5 23.6
2014-Apr-15 12:50S 30°21' E 053°14'1 0.4 1018.9 23.6
2014-Apr-15 10:50S 30°21' E 053°15'2 0.9 1026.9 23.5
2014-Apr-15 08:50S 30°23' E 053°15'0 0.0 1018.3 23.3
2014-Apr-15 07:50S 30°23' E 053°15'1 1.1 1027.8 22.9
2014-Apr-15 06:50S 30°23' E 053°17'0 0.2 1022.4 22.7
2014-Apr-15 05:40S 30°23' E 053°17'0 0.0 1022.3 22.6
2014-Apr-15 03:50S 30°23' E 053°17'1 0.3 1027.0 22.5
2014-Apr-15 00:50S 30°23' E 053°17'0 0.2 1022.5 22.6
2014-Apr-14 23:50S 30°22' E 053°17'1 0.6 1023.1 22.6
2014-Apr-14 21:50S 30°22' E 053°18'1 0.5 1025.1 22.7
2014-Apr-14 19:50S 30°21' E 053°18'0 0.0 1024.3 22.8
2014-Apr-14 18:50S 30°21' E 053°18'0 0.2 1026.5 22.9
2014-Apr-14 17:50S 30°20' E 053°19'1 0.5 1026.7 22.9
2014-Apr-14 16:50S 30°20' E 053°19'0 0.0 1026.0 22.8
2014-Apr-14 13:50S 30°20' E 053°19'1 0.2 1022.9 22.9
2014-Apr-14 10:40S 30°21' E 053°19'0 0.0 1027.1 22.8
2014-Apr-14 05:50S 30°21' E 053°19'0 0.2 1026.2 22.6
2014-Apr-14 04:50S 30°21' E 053°19'1 0.7 1031.6 22.7
2014-Apr-14 03:50S 30°22' E 053°18'0 0.1 1028.1 22.7
2014-Apr-14 02:50S 30°22' E 053°18'0 0.4 1027.8 22.7
2014-Apr-14 01:50S 30°22' E 053°18'0 0.4 1027.9 22.7
2014-Apr-14 00:50S 30°22' E 053°17'0 0.1 1027.2 22.7
2014-Apr-13 22:50S 30°22' E 053°17'1 0.3 1027.9 22.7
2014-Apr-13 20:50S 30°22' E 053°18'1 1.1 1028.0 22.7
2014-Apr-13 19:50S 30°21' E 053°18'0 0.1 1028.1 23.1
2014-Apr-13 14:50S 30°21' E 053°19'0 0.2 1024.5 23.2
2014-Apr-13 13:50S 30°21' E 053°19'1 0.4 1021.9 23.3
2014-Apr-13 12:40S 30°21' E 053°18'1 1.0 1027.7 23.3
2014-Apr-13 11:50S 30°22' E 053°19'1 0.9 1024.5 23.3
2014-Apr-13 10:50S 30°22' E 053°18'0 0.1 1024.2 23.3
2014-Apr-13 09:50S 30°22' E 053°18'0 0.1 1028.7 23.3
2014-Apr-13 08:50S 30°22' E 053°18'3 0.7 1025.1 23.2
2014-Apr-13 04:50S 30°24' E 053°16'0 0.0 1028.4 23.0
2014-Apr-13 03:50S 30°24' E 053°16'1 0.5 1029.3 22.9
2014-Apr-13 01:50S 30°24' E 053°15'1 0.3 1026.6 22.8
2014-Apr-12 23:50S 30°24' E 053°14'0 0.3 1028.0 22.7
2014-Apr-12 22:50S 30°24' E 053°14'0 0.1 1026.9 22.7
2014-Apr-12 21:40S 30°24' E 053°14'0 0.1 1027.5 22.7
2014-Apr-12 20:50S 30°24' E 053°14'1 0.4 1026.5 22.7
2014-Apr-12 18:50S 30°24' E 053°15'1 0.5 1027.4 22.7
2014-Apr-12 17:40S 30°25' E 053°15'0 0.2 1026.5 22.7
2014-Apr-12 16:50S 30°25' E 053°15'1 0.6 1027.9 22.7
2014-Apr-12 15:50S 30°26' E 053°15'1 0.3 1025.7 22.7
2014-Apr-12 13:50S 30°26' E 053°15'1 1.3 1021.6 22.8
2014-Apr-12 12:50S 30°27' E 053°15'0 0.0 1023.0 22.9
2014-Apr-12 11:50S 30°27' E 053°15'1 0.6 1024.7 22.9
2014-Apr-12 09:40S 30°29' E 053°15'0 0.0 1027.0 22.9
2014-Apr-12 08:50S 30°29' E 053°15'2 1.1 1028.0 22.7
2014-Apr-12 06:40S 30°31' E 053°15'0 0.4 1030.3 22.7
2014-Apr-12 05:40S 30°31' E 053°15'1 0.6 1030.2 22.7
2014-Apr-12 04:50S 30°31' E 053°15'1 0.2 1034.3 22.6
2014-Apr-11 23:40S 30°30' E 053°14'1 0.3 1027.4 22.7
2014-Apr-11 18:50S 30°29' E 053°15'0 0.1 1028.7 22.8
2014-Apr-11 17:50S 30°29' E 053°15'2 0.4 1028.3 22.9
2014-Apr-11 12:40S 30°30' E 053°17'0 0.0 1025.7 23.1
2014-Apr-11 11:50S 30°30' E 053°17'0 0.1 1025.0 23.1
2014-Apr-11 09:50S 30°30' E 053°16'   1021.6 23.1

Dump ship's entire track history

sailing weather and tide predictions

Buoy 16575